{"data":{"norad_id":66584,"intl_designator":"2025-268AD","name":"STARLINK-35939","alt_names":[],"object_type":"PAYLOAD","status":"ACTIVE","operator":null,"country":"US","launch_date":"2025-11-21","launch_site_code":"AFETR","launch_vehicle":null,"mission":null,"orbit_class":"UNKNOWN","rcs_meters":null,"size_class":null,"mass_kg":null,"dimensions":null,"purposes":["comms"],"wikipedia_slug":null,"has_3d_model":false,"image_url":null,"decayed_at":null,"tle_current":{"epoch":"2026-05-25T01:23:43.691712Z","epoch_age_seconds":64030,"freshness":"FRESH","line1":"1 66584U 25268AD  26145.05814458  .00016031  00000+0  59066-3 0  9994","line2":"2 66584  43.0010 275.3898 0001149  24.0100 336.0805 15.27588612 29644","mean_motion":15.27588612,"eccentricity":0.0001149,"inclination_deg":43.001,"raan_deg":275.3898,"arg_perigee_deg":24.01,"mean_anomaly_deg":336.0805,"bstar":0.00059066,"rev_number":2964,"period_min":94.266217271329,"perigee_km":482.23496141518,"apogee_km":483.81165605413,"semimajor_km":6861.1603087347,"source":"CELESTRAK","updated_at":"2026-05-25T13:38:21.285953Z"}}}